When you browse on this site, cookies collect data to enhance your experience and personalize the content and advertising you see.
Visit our Privacy Policy to learn more. By continuing to use the site, you agree to this use of cookies and data.
  • In Österreich
  • Länderverzeichnis
  • Für 7 Tage
  • Wassertemperatur
  • Satellitenkarten
  • Wetterkarte
  • News
  • Widgets
  • user-avatar
    Anmelden

    Stündliche Wetter Lublin

    Heute, 26 Mai, Sonntag

    Zeit Temperatur Niederschläge Wind Luftdruck Luftfeuchtigkeit
    00:00 +12°C° 0 mm 3 m/S 743 mmHg 92%
    01:00 +12°C° 0 mm 3 m/S 743 mmHg 93%
    02:00 +12°C° 0 mm 2 m/S 743 mmHg 93%
    03:00 +12°C° 0 mm 2 m/S 743 mmHg 93%
    04:00 +12°C° 0 mm 2 m/S 743 mmHg 94%
    05:00 +10°C° 0 mm 2 m/S 744 mmHg 94%
    06:00 +13°C° 0 mm 2 m/S 744 mmHg 89%
    07:00 +13°C° 0 mm 3 m/S 744 mmHg 83%
    08:00 +16°C° 0 mm 3 m/S 744 mmHg 76%
    09:00 +17°C° 0 mm 3 m/S 744 mmHg 73%
    10:00 +18°C° 0 mm 4 m/S 744 mmHg 70%
    11:00 +19°C° 0 mm 4 m/S 744 mmHg 67%
    12:00 +20°C° 0 mm 4 m/S 744 mmHg 64%
    13:00 +20°C° 0 mm 4 m/S 744 mmHg 62%
    14:00 +21°C° 0 mm 4 m/S 744 mmHg 59%
    15:00 +21°C° 0 mm 4 m/S 743 mmHg 59%
    16:00 +21°C° 0 mm 4 m/S 743 mmHg 59%
    17:00 +21°C° 0 mm 4 m/S 743 mmHg 59%
    18:00 +20°C° 0 mm 3 m/S 743 mmHg 65%
    19:00 +19°C° 0 mm 2 m/S 743 mmHg 71%
    20:00 +17°C° 0 mm 2 m/S 742 mmHg 77%
    21:00 +16°C° 0 mm 2 m/S 743 mmHg 79%
    22:00 +15°C° 0 mm 2 m/S 743 mmHg 82%
    23:00 +14°C° 0 mm 2 m/S 743 mmHg 85%

    Morgen, 27 Mai, Montag

    Zeit Temperatur Niederschläge Wind Luftdruck Luftfeuchtigkeit
    00:00 +14°C° 0 mm 2 m/S 743 mmHg 86%
    01:00 +14°C° 0 mm 2 m/S 743 mmHg 88%
    02:00 +14°C° 0 mm 2 m/S 743 mmHg 89%
    03:00 +14°C° 0 mm 2 m/S 743 mmHg 91%
    04:00 +12°C° 0 mm 3 m/S 743 mmHg 92%
    05:00 +12°C° 0 mm 3 m/S 742 mmHg 94%
    06:00 +14°C° 0 mm 3 m/S 742 mmHg 89%
    07:00 +17°C° 0 mm 4 m/S 742 mmHg 84%
    08:00 +19°C° 0 mm 4 m/S 742 mmHg 79%
    09:00 +20°C° 0.1 mm 4 m/S 742 mmHg 75%
    10:00 +22°C° 0.1 mm 5 m/S 742 mmHg 70%
    11:00 +23°C° 0.1 mm 5 m/S 742 mmHg 65%
    12:00 +23°C° 0.4 mm 5 m/S 742 mmHg 64%
    13:00 +25°C° 0.4 mm 5 m/S 742 mmHg 64%
    14:00 +25°C° 0.4 mm 5 m/S 742 mmHg 63%
    15:00 +25°C° 0.2 mm 5 m/S 742 mmHg 65%
    16:00 +25°C° 0.2 mm 5 m/S 741 mmHg 67%
    17:00 +23°C° 0.2 mm 6 m/S 741 mmHg 69%
    18:00 +22°C° 0 mm 5 m/S 741 mmHg 73%
    19:00 +20°C° 0 mm 4 m/S 741 mmHg 78%
    20:00 +18°C° 0 mm 3 m/S 741 mmHg 82%
    21:00 +18°C° 0 mm 3 m/S 741 mmHg 85%
    22:00 +17°C° 0 mm 3 m/S 741 mmHg 87%
    23:00 +16°C° 0 mm 3 m/S 741 mmHg 89%

    übermorgen, 28 Mai, Dienstag

    Zeit Temperatur Niederschläge Wind Luftdruck Luftfeuchtigkeit
    00:00 +16°C° 0.1 mm 3 m/S 740 mmHg 90%
    01:00 +16°C° 0.1 mm 3 m/S 740 mmHg 91%
    02:00 +16°C° 0.1 mm 3 m/S 740 mmHg 91%
    03:00 +16°C° 0.5 mm 3 m/S 739 mmHg 92%
    04:00 +16°C° 0.5 mm 3 m/S 739 mmHg 94%
    05:00 +17°C° 0.5 mm 3 m/S 739 mmHg 95%
    06:00 +18°C° 0.4 mm 4 m/S 739 mmHg 92%
    07:00 +19°C° 0.4 mm 5 m/S 738 mmHg 90%
    08:00 +20°C° 0.4 mm 5 m/S 738 mmHg 87%
    09:00 +21°C° 0 mm 6 m/S 738 mmHg 83%
    10:00 +22°C° 0 mm 6 m/S 738 mmHg 78%
    11:00 +23°C° 0 mm 6 m/S 738 mmHg 74%
    12:00 +25°C° 0.1 mm 5 m/S 738 mmHg 70%
    13:00 +26°C° 0.1 mm 5 m/S 738 mmHg 66%
    14:00 +27°C° 0.1 mm 5 m/S 737 mmHg 62%
    15:00 +25°C° 1 mm 5 m/S 737 mmHg 68%
    16:00 +23°C° 1 mm 5 m/S 737 mmHg 74%
    17:00 +22°C° 1 mm 5 m/S 737 mmHg 80%
    18:00 +21°C° 0.4 mm 4 m/S 736 mmHg 83%
    19:00 +20°C° 0.4 mm 4 m/S 736 mmHg 86%
    20:00 +19°C° 0.4 mm 4 m/S 736 mmHg 89%
    21:00 +19°C° 1.3 mm 3 m/S 736 mmHg 90%
    22:00 +18°C° 1.3 mm 3 m/S 736 mmHg 92%
    23:00 +18°C° 1.3 mm 3 m/S 736 mmHg 94%

    29 Mai, Mittwoch

    Zeit Temperatur Niederschläge Wind Luftdruck Luftfeuchtigkeit
    00:00 +17°C° 0 mm 3 m/S 736 mmHg 94%
    01:00 +17°C° 0 mm 3 m/S 736 mmHg 94%
    02:00 +16°C° 0 mm 3 m/S 736 mmHg 93%
    03:00 +16°C° 0 mm 3 m/S 736 mmHg 94%
    04:00 +16°C° 0 mm 3 m/S 736 mmHg 95%
    05:00 +14°C° 0 mm 3 m/S 737 mmHg 96%
    06:00 +16°C° 0 mm 3 m/S 737 mmHg 94%
    07:00 +17°C° 0 mm 3 m/S 737 mmHg 93%
    08:00 +18°C° 0 mm 3 m/S 738 mmHg 91%
    09:00 +18°C° 0.1 mm 4 m/S 738 mmHg 91%
    10:00 +18°C° 0.1 mm 4 m/S 739 mmHg 90%
    11:00 +18°C° 0.1 mm 4 m/S 739 mmHg 89%
    12:00 +16°C° 0.1 mm 5 m/S 740 mmHg 90%
    13:00 +15°C° 0.1 mm 5 m/S 740 mmHg 90%
    14:00 +14°C° 0.1 mm 6 m/S 741 mmHg 90%
    15:00 +13°C° 0 mm 6 m/S 741 mmHg 89%
    16:00 +13°C° 0 mm 6 m/S 742 mmHg 88%
    17:00 +13°C° 0 mm 6 m/S 742 mmHg 86%
    18:00 +12°C° 0 mm 5 m/S 743 mmHg 86%
    19:00 +10°C° 0 mm 5 m/S 743 mmHg 85%
    20:00 +10°C° 0 mm 5 m/S 744 mmHg 85%
    21:00 +9°C° 0 mm 5 m/S 744 mmHg 84%
    22:00 +10°C° 0 mm 4 m/S 745 mmHg 84%
    23:00 +8°C° 0 mm 4 m/S 746 mmHg 83%

    30 Mai, Donnerstag

    Zeit Temperatur Niederschläge Wind Luftdruck Luftfeuchtigkeit
    00:00 +8°C° 0 mm 4 m/S 746 mmHg 83%
    01:00 +8°C° 0 mm 4 m/S 746 mmHg 83%
    02:00 +8°C° 0 mm 4 m/S 747 mmHg 83%
    03:00 +7°C° 0 mm 4 m/S 747 mmHg 83%
    04:00 +7°C° 0 mm 4 m/S 747 mmHg 83%
    05:00 +8°C° 0 mm 3 m/S 747 mmHg 83%
    06:00 +8°C° 0 mm 3 m/S 748 mmHg 82%
    07:00 +9°C° 0 mm 3 m/S 748 mmHg 80%
    08:00 +9°C° 0 mm 3 m/S 749 mmHg 79%
    09:00 +11°C° 0 mm 3 m/S 749 mmHg 77%
    10:00 +12°C° 0 mm 3 m/S 749 mmHg 76%
    11:00 +13°C° 0 mm 3 m/S 749 mmHg 74%
    12:00 +14°C° 0 mm 3 m/S 749 mmHg 74%
    13:00 +14°C° 0 mm 3 m/S 749 mmHg 73%
    14:00 +16°C° 0 mm 3 m/S 749 mmHg 72%
    15:00 +16°C° 0 mm 3 m/S 749 mmHg 71%
    16:00 +17°C° 0 mm 3 m/S 749 mmHg 70%
    17:00 +17°C° 0 mm 3 m/S 749 mmHg 69%
    18:00 +17°C° 0 mm 2 m/S 749 mmHg 71%
    19:00 +16°C° 0 mm 2 m/S 749 mmHg 74%
    20:00 +15°C° 0 mm 1 m/S 749 mmHg 77%
    21:00 +14°C° 0 mm 1 m/S 749 mmHg 78%
    22:00 +13°C° 0 mm 1 m/S 749 mmHg 80%
    23:00 +12°C° 0 mm 1 m/S 749 mmHg 81%

    31 Mai, Freitag

    Zeit Temperatur Niederschläge Wind Luftdruck Luftfeuchtigkeit
    00:00 +11°C° 0 mm 1 m/S 748 mmHg 82%
    01:00 +11°C° 0 mm 1 m/S 748 mmHg 82%
    02:00 +10°C° 0 mm 1 m/S 748 mmHg 83%
    03:00 +10°C° 0 mm 1 m/S 748 mmHg 83%
    04:00 +10°C° 0 mm 1 m/S 747 mmHg 83%
    05:00 +10°C° 0 mm 1 m/S 747 mmHg 82%
    06:00 +12°C° 0 mm 1 m/S 747 mmHg 77%
    07:00 +13°C° 0 mm 1 m/S 747 mmHg 72%
    08:00 +15°C° 0 mm 1 m/S 747 mmHg 67%
    09:00 +16°C° 0 mm 1 m/S 747 mmHg 64%
    10:00 +18°C° 0 mm 1 m/S 747 mmHg 61%
    11:00 +19°C° 0 mm 2 m/S 746 mmHg 58%
    12:00 +19°C° 0 mm 2 m/S 746 mmHg 57%
    13:00 +20°C° 0 mm 2 m/S 745 mmHg 57%
    14:00 +20°C° 0 mm 2 m/S 745 mmHg 56%
    15:00 +20°C° 0 mm 2 m/S 745 mmHg 56%
    16:00 +20°C° 0 mm 2 m/S 745 mmHg 57%
    17:00 +20°C° 0 mm 2 m/S 745 mmHg 57%
    18:00 +19°C° 0 mm 2 m/S 745 mmHg 63%
    19:00 +17°C° 0 mm 2 m/S 745 mmHg 69%
    20:00 +16°C° 0 mm 3 m/S 746 mmHg 74%
    21:00 +13°C° 0 mm 4 m/S 746 mmHg 78%
    22:00 +10°C° 0 mm 6 m/S 747 mmHg 83%
    23:00 +8°C° 0 mm 7 m/S 747 mmHg 87%
    Mehr zeigen